Home   Weather   New York   Past weeks
Flag for USA

Past Weather in New York, New York, USA — November 2016

Now
60 °F

Low clouds.


Feels Like: 60 °F
Forecast: 72 / 59 °F
Wind: N/A

Location: New York City - Central Park

Current Time: May 27, 2020 at 5:13:52 am

Latest Report: May 27, 2020 at 4:22 am


Visibility: 7 mi

Pressure: 30.24 "Hg

Humidity: 93%

Dew Point: 58 °F

Location of New YorkLocation

November 2016 Weather in New York — Graph

°F

High & Low Weather Summary for November 2016

 TemperatureHumidityPressure
High72 °F (Nov 3, 2:51 pm)97% (Nov 30, 7:51 pm)30.48 "Hg (Nov 30, 7:51 pm)
Low35 °F (Nov 20, 1:51 am)20% (Nov 13, 1:51 pm)29.52 "Hg (Nov 20, 1:51 pm)
Average50 °F58%30.04 "Hg
* Reported Nov 1 12:51 am — Nov 30 11:51 pm, New York. Weather by CustomWeather, © 2020

Note: Actual official high and low records may vary slightly from our data, if they occured in-between our weather recording intervals... More about our weather records

New York Weather History for November 1, 2016

Scroll right to see more
 ConditionsComfort  
Time TempWeatherWind HumidityBarometerVisibility
12:51 am
Tue, Nov 1
45 °FClear.5 mph58%30.31 "Hg10 mi
1:51 am44 °FClear.3 mph63%30.32 "Hg10 mi
2:51 am42 °FClear.6 mph73%30.32 "Hg10 mi
3:51 am43 °FClear.No wind71%30.33 "Hg10 mi
4:51 am41 °FClear.5 mph80%30.34 "Hg10 mi
5:51 am40 °FClear.No wind83%30.35 "Hg10 mi
6:51 am41 °FClear.No wind80%30.34 "Hg10 mi
7:51 am43 °FSunny.3 mph79%30.36 "Hg10 mi
8:51 am46 °FSunny.No wind77%30.38 "Hg10 mi
9:51 am48 °FSunny.3 mph71%30.38 "Hg10 mi
10:51 am50 °FSunny.5 mph66%30.38 "Hg10 mi
11:58 am54 °FPartly sunny.3 mph64%30.40 "Hg10 mi
12:51 pm56 °FScattered clouds.3 mph53%30.36 "Hg10 mi
1:51 pm57 °FSunny.3 mph53%30.34 "Hg10 mi
2:51 pm58 °FSunny.5 mph51%30.32 "Hg10 mi
3:51 pm58 °FSunny.7 mph54%30.31 "Hg10 mi
4:51 pm56 °FScattered clouds.3 mph62%30.31 "Hg10 mi
5:51 pm56 °FOvercast.N/A60%30.31 "Hg10 mi
6:51 pm54 °FClear.3 mph67%30.31 "Hg10 mi
7:51 pm55 °FClear.No wind69%30.31 "Hg10 mi
8:51 pm55 °FClear.3 mph69%30.30 "Hg10 mi
9:51 pm54 °FClear.No wind72%30.30 "Hg10 mi
10:51 pm55 °FOvercast.3 mph69%30.31 "Hg10 mi
11:51 pm56 °FOvercast.5 mph67%30.30 "Hg10 mi
Weather by CustomWeather, © 2020

See weather overview

Advertising